SL-24 R/B, 40047

Orbit data source: Space-Track

SL-24 R/B, 40047 is space debris in SSO originally from a launch on Thu, 19 Jun 2014 UTC launched from the Orenburg, Russia (OREN). Debris objects in space refer to the collection of defunct objects orbiting the Earth. Examples of debris include non-operational satellites, rocket bodies, and fragments generated from explosions, collisions, or faulty payload assembly.

Loading next visibility...
Identifier
40047, 2014-033AP
Orbit
SSO
Country
Flag of CISCIS
Related business
Manufacturer
Yuzhnoe
Mission
Spacecraft
Bus & Motor
15A18-BR, Unknown motor
Mass
~1,000 kg wet, ~1,000 kg dry
Launch date (UTC)
2014-06-19 (12 years ago)
Launch vehicle
Unknown
Launch site
Orenburg, Russia (OREN)
Object type
Payload
Rocket body
Debris
Shape & HBR
Cyl, 1.5 m
Radar Cross Section
10.603 m², Large (>1 m²)

Expand to show TLE details & history
Last TLE update: 14 hours ago

TLE from 14 hours ago
0 SL-24 R/B
1 40047U 14033AP  26150.55958702  .00000045  00000-0  37410-4 0  9999
2 40047  97.8698  12.4266 0567080 337.8477  19.9021 13.61963101593639
Epoch: 2026-05-30T13:25Z
TLE epoch observation values (Epoch: 2026-05-30T13:25:48.318Z)
Latitude
0.00003°
Longitude
-77.0986°
Altitude
639.431 km
Speed
7.735 km/s
True Right ascension
00h 49m 42s
True Declination
0° 00' 00"
Sunlit
Object was in daylight at epoch
Visualization orbit readout
Latitude
Unknown
Longitude
Unknown
Altitude
Unknown
Speed
Unknown
Apparent Right ascension
Unknown
Apparent Declination
Unknown
Sunlit
N/A
Visualization observer readout
Local Sidereal Time
13:14:08
Azimuth
Unknown
Elevation
Unknown
Doppler factor
Unknown
Orbital elements
Apogee altitude
1,445.612 km
Perigee altitude
605.892 km
Semi-major axis
7,403.889 km
Eccentricity
0.05671
Inclination
97.8698°
RAAN
12.4266°
Arg. of periapsis
337.8477°
True anomaly
22.27099°
Mean anomaly
19.9021°
Eccentric anomaly
21.0702°
Mean motion
3.40685 °/min
Orbital period
105.67 mins
BSTAR
0.00003741
Loading maneuver chart data...
Computing Atmospheric mass density...
Loading historical data...
Loading historical data...
Loading historical data...
Loading historical data...
Loading historical data...
Loading historical data...
Loading historical data...

Documentation

Showing up to 5 results
|